Location: Newark
(7.0858°N, 171.3717°E)
Time: 17:38:23
(UTC+00:00)

Transit 2A - Pass Details

Date: 28 November 2020
Orbit: 598 x 960 km, 66.7° (Epoch: 20 January)

Event Time Altitude Azimuth Distance (km) Brightness Sun altitude
Rises 16:34:18 0° 331° (NNW) 2,972 - -27.8°
Reaches altitude 10° 16:36:42 10° 326° (NW) 2,019 - -27.2°
Maximum altitude 16:41:02 48° 251° (WSW) 795 - -26.2°
Exits shadow 16:43:02 27° 191° (S) 1,157 7.0 -25.7°
Drops below altitude 10° 16:45:12 10° 176° (S) 1,934 8.4 -25.2°
Sets 16:47:28 0° 170° (S) 2,832 9.3 -24.7°
